This demonstration page uses our WeatherBlox Daily Observations layout. Learn more.

Left ArrowRight Arrow

39.51506, -84.39828

Hourly Observations for April 23, 2020

Temp ( °F °C ) Dew Point ( °F °C ) Humidity (%) Winds ( mph kmh ) Pressure ( in mb ) Visibility ( mi km ) Precip ( " mm )
12:15 am 00:15 Clear 52 11.1 46 7.8 80 80 SW 5 7 29.91 1013 N/A 0 0
12:35 am 00:35 Clear 49 9.6 44 6.7 82 82 SW 5 7 29.91 1013 N/A 0 0
12:55 am 00:55 undefined 49 9.2 44 6.6 84 84 SSW 3 6 29.91 1013 N/A 0 0
1:15 am 01:15 Clear 51 10.5 45 7.1 80 80 Calm 29.91 1013 N/A 0 0
1:35 am 01:35 Clear 49 9.5 44 6.7 83 83 Calm 29.9 1013 N/A 0 0
1:55 am 01:55 undefined 49 9.4 45 7 85 85 Calm 29.89 1012 N/A 0 0
2:15 am 02:15 Clear 49 9.4 44 6.7 83 83 Calm 29.89 1012 N/A 0 0
2:35 am 02:35 Clear 47 8.6 43 6.3 86 86 NNW 3 6 29.88 1012 N/A 0 0
2:55 am 02:55 undefined 47 8.5 44 6.4 87 87 Calm 29.87 1012 N/A 0 0
3:15 am 03:15 undefined 48 8.8 44 6.5 86 86 Calm 29.86 1011 N/A 0 0
3:35 am 03:35 undefined 48 8.9 44 6.5 85 85 Calm 29.86 1011 N/A 0 0
3:55 am 03:55 undefined 48 8.7 44 6.4 86 86 Calm 29.84 1011 N/A 0 0
4:15 am 04:15 undefined 47 8.6 44 6.4 86 86 Calm 29.84 1011 N/A 0 0
4:35 am 04:35 undefined 47 8.4 44 6.8 90 90 Calm 29.84 1011 N/A 0 0
4:55 am 04:55 undefined 47 8.6 44 6.9 89 89 Calm 29.85 1011 N/A 0 0
5:15 am 05:15 undefined 47 8.6 44 6.8 89 89 Calm 29.84 1011 N/A 0 0
5:35 am 05:35 undefined 47 8.6 44 6.5 87 87 Calm 29.84 1011 N/A 0 0
5:55 am 05:55 undefined 47 8.5 44 6.7 89 89 Calm 29.85 1011 N/A 0 0
6:15 am 06:15 undefined 48 8.7 45 7 89 89 Calm 29.84 1011 N/A 0 0
6:35 am 06:35 undefined 47 8.4 44 6.4 87 87 Calm 29.84 1011 N/A 0 0
6:55 am 06:55 undefined 47 8.3 44 6.7 90 90 S 3 6 29.85 1011 N/A 0 0
7:15 am 07:15 Mostly Cloudy 51 10.4 44 6.7 78 78 SW 5 7 29.85 1011 N/A 0 0
7:35 am 07:35 Cloudy 55 12.7 45 7 69 69 SSW 8 13 29.84 1011 N/A 0 0
7:55 am 07:55 Partly Cloudy 56 13.1 44 6.8 66 66 S 9 15 29.83 1010 N/A 0 0
8:15 am 08:15 Mostly Cloudy 56 13.4 45 7.1 66 66 S 10 17 29.82 1010 N/A 0 0
8:35 am 08:35 Cloudy 56 13.6 45 7.2 66 66 S 7 11 29.81 1009 N/A 0 0
8:55 am 08:55 Cloudy 56 13.6 46 7.5 67 67 SSE 8 13 29.82 1010 N/A 0 0
9:15 am 09:15 Cloudy 56 13.5 46 7.7 68 68 S 9 15 29.82 1010 N/A 0 0
9:35 am 09:35 Cloudy 56 13.1 47 8.4 73 73 S 9 15 29.82 1010 N/A 0 0
9:55 am 09:55 Cloudy 54 12.3 49 9.5 83 83 S 9 15 29.83 1010 N/A 0 0
10:15 am 10:15 Cloudy 53 11.8 50 10.1 89 89 SSE 8 13 29.83 1010 N/A 0 0
10:35 am 10:35 undefined 53 11.4 50 10.2 92 92 S 6 9 29.83 1010 N/A 0 0
10:55 am 10:55 undefined 53 11.4 51 10.5 94 94 E 3 6 29.83 1010 N/A 0 0
11:15 am 11:15 Cloudy 53 11.4 51 10.8 96 96 ENE 8 13 29.82 1010 N/A 0 0
11:35 am 11:35 undefined 53 11.6 52 10.9 96 96 ENE 6 9 29.8 1009 N/A 0 0
11:55 am 11:55 undefined 53 11.8 51 10.7 93 93 E 6 9 29.8 1009 N/A 0 0
12:15 pm 12:15 undefined 53 11.9 52 10.9 94 94 ENE 7 11 29.79 1009 N/A 0 0
12:35 pm 12:35 Cloudy 54 12.2 52 11.2 94 94 E 6 9 29.78 1009 N/A 0 0
12:55 pm 12:55 Cloudy 54 12.2 52 11.1 93 93 E 6 9 29.77 1008 N/A 0 0
1:15 pm 13:15 Cloudy 54 12.2 52 11.2 94 94 ESE 8 13 29.76 1008 N/A 0 0
1:35 pm 13:35 undefined 54 12.1 53 11.5 96 96 E 6 9 29.75 1008 N/A 0 0
1:55 pm 13:55 Cloudy 55 12.5 53 11.9 96 96 E 6 9 29.73 1007 N/A 0 0
2:15 pm 14:15 Cloudy 55 12.6 53 11.8 95 95 ESE 7 11 29.72 1007 N/A 0 0
2:35 pm 14:35 Cloudy 55 12.5 53 11.6 94 94 ESE 8 13 29.71 1006 N/A 0 0
2:55 pm 14:55 Cloudy 55 12.6 53 11.6 94 94 E 7 11 29.71 1006 N/A 0 0
3:15 pm 15:15 Cloudy 55 12.7 53 11.7 94 94 SE 5 7 29.7 1006 N/A 0 0
3:35 pm 15:35 undefined 55 13 54 12.1 94 94 E 5 7 29.7 1006 N/A 0 0
3:55 pm 15:55 undefined 55 13 54 12.1 94 94 ESE 5 7 29.69 1005 N/A 0 0
4:35 pm 16:35 undefined 56 13.1 54 12.3 95 95 ESE 6 9 29.66 1004 N/A 0 0
4:55 pm 16:55 undefined 56 13.3 54 12.3 94 94 SE 9 15 29.65 1004 N/A 0 0
5:15 pm 17:15 Cloudy 56 13.3 54 12 92 92 SE 8 13 29.65 1004 N/A 0 0
5:35 pm 17:35 undefined 57 14 55 12.5 91 91 ESE 7 11 29.64 1004 N/A 0 0
5:55 pm 17:55 Cloudy 57 13.7 54 12.1 90 90 ESE 6 9 29.63 1003 N/A 0 0
6:15 pm 18:15 Cloudy 57 14.1 54 12.2 88 88 E 3 6 29.63 1003 N/A 0 0
6:35 pm 18:35 Cloudy 57 13.8 53 11.9 88 88 SE 8 13 29.64 1004 N/A 0 0
6:55 pm 18:55 undefined 57 13.8 54 12 89 89 Calm 29.65 1004 N/A 0 0
7:15 pm 19:15 Cloudy 56 13.6 54 12 90 90 ESE 5 7 29.65 1004 N/A 0 0
7:35 pm 19:35 Cloudy 56 13.3 54 12.4 94 94 ENE 6 9 29.63 1003 N/A 0 0
7:55 pm 19:55 undefined 56 13.1 54 12.2 94 94 NE 5 7 29.63 1003 N/A 0 0
8:15 pm 20:15 Cloudy 55 12.8 54 12.3 97 97 Calm 29.63 1003 N/A 0 0
8:35 pm 20:35 Cloudy 55 13 54 12.4 96 96 Calm 29.63 1003 N/A 0 0
8:55 pm 20:55 Cloudy 55 12.7 54 12.4 98 98 Calm 29.63 1003 N/A 0 0
9:15 pm 21:15 Cloudy 55 12.6 54 12.4 99 99 N 3 6 29.63 1003 N/A 0 0
9:35 pm 21:35 undefined 55 12.5 54 12.3 99 99 Calm 29.64 1004 N/A 0 0
9:55 pm 21:55 undefined 55 12.5 54 12.3 99 99 Calm 29.64 1004 N/A 0 0
10:15 pm 22:15 Cloudy 54 12.4 54 12.2 99 99 NNE 3 6 29.64 1004 N/A 0 0
10:35 pm 22:35 Cloudy 55 12.5 54 12.3 99 99 Calm 29.65 1004 N/A 0 0
10:55 pm 22:55 Cloudy 55 12.5 54 12.2 98 98 N 3 6 29.65 1004 N/A 0 0
11:15 pm 23:15 Cloudy 55 12.5 54 12.2 98 98 Calm 29.65 1004 N/A 0 0
11:35 pm 23:35 Cloudy 55 12.5 54 12.3 99 99 N 5 7 29.65 1004 N/A 0 0
11:55 pm 23:55 Cloudy 55 12.5 54 12.3 99 99 N 5 7 29.65 1004 N/A 0 0

Powered by AerisWeather